Wind_Speed
9 12 12 13 15 16 14 13 11 10 9 9 8 9 9 8 7 7 7 8 10 10 7 6 8 10 12 13 11 11 10 10 9 9 9 8 7 7 7 7 7 7 7
11 9 11 12 13 14 16 18 16 11 10 9 9 8 9 9 10 9 9 10 11 11 10 8 4 1 2 3 5 6 5 6 7 7 7 6 6 7 7 8 8 7 7
16 9 11 12 10 10 12 15 18 18 13 11 10 10 9 11 12 13 11 11 11 11 10 10 9 9 7 6 5 5 5 6 6 6 7 7 7 7 7 6 6 6 6
18 14 12 13 9 7 8 11 14 17 19 15 11 10 11 11 12 13 13 12 11 11 11 11 11 11 11 11 10 9 8 7 8 8 8 8 9 7 5 5 6 6 6
17 16 14 14 11 6 5 6 10 14 18 20 16 13 13 13 13 13 13 13 14 14 14 13 13 13 13 12 12 11 10 10 10 10 10 10 9 9 8 8 8 9 9
19 18 16 15 12 8 5 5 7 10 13 16 19 19 14 13 13 13 13 14 15 15 14 14 15 15 15 14 13 13 12 13 13 12 11 12 12 12 11 11 10 10 10
19 19 18 16 14 11 8 5 5 5 7 11 15 18 18 15 13 12 12 13 13 13 13 13 13 13 13 13 13 13 13 13 13 13 14 14 14 14 13 12 11 10 10
20 21 19 18 15 13 11 8 4 1 3 7 8 13 14 17 15 12 12 11 11 11 11 12 12 12 13 13 13 13 14 14 14 14 14 14 13 13 13 13 13 12 11
18 21 21 20 17 14 12 9 7 4 2 2 4 5 8 11 13 14 13 10 9 9 9 10 11 11 11 11 11 12 13 14 14 14 15 16 15 14 14 13 12 12 12
17 18 21 21 19 16 12 11 10 8 6 4 2 1 1 3 5 8 9 10 9 9 10 11 11 11 12 12 13 13 13 13 14 15 16 17 17 16 16 16 13 11 11
19 18 18 20 18 16 15 14 13 12 11 10 8 7 6 4 3 3 3 4 5 6 7 8 9 9 10 11 12 13 14 14 14 15 15 16 18 18 19 17 16 14 12
14 14 14 15 15 14 13 12 12 13 14 14 13 12 11 10 9 8 8 7 7 8 8 8 8 8 8 8 9 11 13 14 14 15 15 16 17 18 19 19 18 16 14
14 12 10 10 10 11 11 11 11 12 13 15 15 15 15 15 14 13 13 12 12 13 13 14 14 14 14 14 14 14 13 14 14 15 15 16 17 18 19 20 19 17 17
12 12 10 9 8 8 9 11 12 12 13 14 15 16 16 16 17 17 17 16 16 16 17 17 18 18 18 18 19 19 19 19 19 18 18 18 18 18 19 20 20 19 17
15 13 11 11 10 10 10 11 11 12 13 15 16 16 17 17 17 18 18 18 18 18 19 20 20 21 21 21 22 22 22 21 22 22 22 22 21 20 20 20 21 21 19
17 15 15 14 14 15 15 14 14 13 14 14 15 17 17 17 18 19 19 20 20 19 20 20 21 21 21 22 23 23 23 23 24 24 24 25 24 22 21 21 21 22 21
20 21 19 19 20 20 20 20 19 19 19 18 17 18 18 18 18 19 19 19 20 20 21 22 22 22 22 23 23 23 24 25 26 25 25 26 26 25 25 24 23 22 22
22 24 24 24 24 24 24 24 23 24 23 22 21 21 20 20 21 20 20 19 22 23 24 25 24 25 25 26 27 26 26 26 26 26 27 28 27 28 28 27 27 26 24
22 21 24 25 26 26 27 27 27 27 27 25 25 24 23 22 21 23 24 24 26 28 29 28 28 28 28 28 29 30 31 32 31 30 29 28 28 28 28 29 29 28 28
26 26 26 25 26 27 28 28 29 30 29 29 27 26 25 25 27 29 28 27 30 32 31 30 31 32 33 32 33 34 34 35 35 34 33 33 31 31 31 30 31 31 31
32 30 29 29 29 28 29 30 31 31 31 31 29 29 29 29 29 30 31 31 32 34 34 35 36 36 35 35 37 38 38 37 38 37 35 35 33 32 31 32 32 32 32
32 33 33 32 32 31 32 33 34 34 34 32 31 31 32 33 33 35 35 36 38 40 40 40 41 42 42 38 39 40 43 43 41 38 37 36 35 35 34 33 33 34 34
34 34 33 32 32 33 33 33 35 35 35 34 33 32 32 34 36 38 39 40 41 42 42 41 41 41 41 40 39 38 42 45 44 42 41 39 37 38 38 37 37 38 37
30 31 31 32 32 32 32 33 34 34 34 34 34 33 33 35 36 38 38 38 38 38 39 39 39 39 40 39 39 40 41 43 45 49 45 43 41 42 40 42 42 42 43
34 35 34 34 34 34 34 33 34 34 33 33 33 34 34 35 35 34 33 32 32 32 32 33 33 33 34 35 37 36 36 38 40 42 48 45 42 41 41 43 44 47 46
36 35 35 35 35 35 34 32 32 32 32 32 32 33 33 32 32 32 33 34 34 34 32 32 32 32 31 33 34 36 38 40 39 41 44 45 43 42 41 39 45 44 42
Wind_Direction
143 126 115 98 83 75 69 62 53 47 43 45 39 37 37 31 33 38 37 54 64 77 102 154 206 236 247 252 255 265 279 294 318 329 334 335 338 344 345 351 347 336 340
152 129 126 117 96 79 68 58 52 50 46 52 52 45 44 42 45 48 59 66 63 68 75 80 84 95 250 271 264 284 306 327 334 341 343 350 353 348 347 345 342 343 343
163 154 141 137 114 89 71 56 52 48 47 47 50 47 47 49 47 52 62 62 61 60 61 60 55 56 57 53 45 33 20 11 8 2 1 353 344 342 343 341 342 344 349
168 170 161 155 140 110 85 60 47 44 45 48 53 54 54 56 57 57 61 63 62 60 56 55 53 53 51 50 50 45 37 20 14 10 5 355 349 355 4 15 14 8 3
178 178 176 169 162 146 112 77 59 52 37 43 47 54 58 58 60 60 61 62 62 61 59 58 57 56 54 54 50 47 43 34 29 21 14 8 5 13 15 8 5 1 356
187 185 184 181 181 175 161 112 77 70 33 30 38 44 50 56 58 58 61 61 61 61 61 60 60 59 57 55 51 47 42 38 37 29 19 16 15 13 12 8 360 1 353
196 194 193 192 193 191 185 160 113 82 32 42 25 32 41 47 57 59 59 59 60 59 58 57 56 54 53 51 48 44 38 34 31 26 22 20 18 14 12 5 358 353 347
201 204 201 203 204 200 198 192 187 164 24 40 48 30 36 36 42 50 55 58 56 55 52 50 47 44 42 40 35 34 29 22 16 12 10 6 5 360 1 358 357 353 346
203 203 208 209 209 210 209 213 221 238 267 39 40 28 25 30 33 38 40 41 42 42 40 40 36 34 31 28 23 19 16 9 6 4 1 359 356 349 342 339 344 342 339
205 207 210 214 215 217 216 219 229 235 236 228 234 272 119 85 29 23 23 21 25 28 25 26 24 22 20 17 14 10 9 4 360 359 358 357 352 349 341 331 323 322 328
212 211 211 213 214 218 222 222 228 237 241 246 248 251 260 255 243 290 321 340 342 348 356 0 1 3 5 2 2 2 359 356 353 349 347 346 345 345 343 334 326 318 313
185 189 201 209 215 219 226 232 236 243 247 251 256 258 260 260 261 266 272 278 280 282 286 289 291 294 301 315 325 335 336 337 337 337 335 335 333 333 338 337 331 325 316
186 185 191 203 213 218 224 231 237 241 249 254 256 258 261 262 264 265 268 270 275 280 281 282 283 285 287 290 291 292 301 306 309 312 317 323 324 324 328 333 331 323 318
191 198 205 214 219 226 234 241 246 250 253 256 259 262 262 262 263 266 269 272 274 277 280 281 282 285 286 287 289 290 292 295 296 299 303 306 309 315 318 319 324 323 317
210 214 220 220 223 231 236 248 255 256 257 257 259 261 263 264 265 267 268 273 275 277 279 281 283 285 286 287 288 290 291 292 293 294 295 297 298 302 307 310 314 317 314
226 229 231 228 229 230 241 247 251 257 263 265 264 264 265 267 267 267 269 273 275 276 278 280 283 285 287 287 286 287 287 288 285 284 286 286 288 291 294 297 300 304 307
241 242 245 246 242 241 246 251 256 260 266 268 269 270 269 268 267 268 269 271 272 274 278 281 283 285 286 286 287 286 284 282 280 280 279 279 282 287 288 288 288 288 292
244 251 252 251 251 250 253 256 259 262 265 270 269 267 269 270 265 263 265 268 272 275 278 280 282 287 290 289 285 281 280 280 282 281 280 281 282 283 284 285 284 283 283
245 249 255 258 260 258 254 255 258 261 266 269 269 270 269 267 267 265 265 267 270 274 276 279 283 286 286 284 284 282 282 280 279 279 279 281 281 283 284 284 284 282 280
246 250 252 255 259 263 265 265 265 266 269 273 275 273 269 269 268 269 268 269 272 274 276 280 281 281 283 284 284 283 281 281 281 282 281 281 281 281 283 284 284 283 279
257 255 255 257 257 260 264 265 263 264 266 268 270 272 274 272 271 271 273 275 276 275 278 280 281 284 283 285 284 283 281 279 278 279 281 281 281 281 279 278 278 278 277
250 252 255 259 263 263 263 265 266 267 266 266 270 272 272 273 271 271 273 274 274 277 278 279 280 281 281 281 281 283 284 282 281 283 280 281 281 280 279 278 275 274 272
250 252 256 260 263 266 266 263 263 265 268 270 271 270 269 269 269 270 271 271 273 275 277 277 279 281 281 279 277 278 283 288 292 289 286 282 281 277 276 275 274 274 275
252 256 260 264 265 264 265 267 268 267 267 269 271 271 270 269 269 270 272 274 276 276 278 279 278 278 278 280 280 279 279 281 284 287 287 288 284 280 276 275 272 274 275
258 261 263 263 264 267 269 269 267 267 267 267 268 269 269 270 272 273 275 276 276 274 274 274 275 276 279 280 281 283 282 283 283 285 288 290 287 282 278 274 276 272 272
258 261 262 263 264 265 267 265 264 264 265 265 265 266 268 268 269 271 273 274 275 276 275 275 274 273 273 275 275 276 279 282 285 285 285 286 289 282 278 285 281 280 277
Height
3183 3184 3186 3187 3188 3188 3188 3188 3188 3188 3187 3186 3186 3185 3184 3183 3182 3181 3180 3179 3179 3179 3179 3180 3180 3180 3180 3180 3180 3181 3181 3181 3180 3179 3178 3177 3176 3176 3175 3174 3174 3173 3172
3184 3184 3187 3188 3189 3189 3190 3190 3189 3189 3189 3189 3188 3187 3186 3185 3183 3183 3182 3181 3181 3181 3181 3181 3182 3181 3181 3181 3181 3181 3181 3181 3180 3179 3179 3178 3177 3176 3176 3175 3174 3173 3172
3183 3185 3187 3189 3190 3190 3191 3192 3192 3192 3191 3190 3189 3189 3189 3187 3186 3185 3184 3183 3183 3183 3183 3183 3183 3183 3182 3183 3183 3183 3182 3181 3181 3180 3179 3178 3178 3177 3176 3175 3174 3173 3172
3183 3185 3187 3189 3190 3191 3192 3193 3194 3194 3193 3192 3192 3191 3190 3189 3189 3187 3187 3186 3186 3185 3185 3185 3185 3185 3185 3185 3184 3184 3184 3183 3182 3181 3181 3180 3179 3178 3177 3176 3175 3174 3173
3182 3185 3187 3188 3190 3192 3193 3194 3194 3194 3194 3194 3194 3193 3192 3191 3190 3190 3189 3189 3188 3188 3188 3187 3187 3187 3187 3186 3186 3186 3185 3185 3184 3183 3182 3181 3181 3179 3178 3177 3176 3175 3174
3182 3184 3187 3188 3190 3192 3193 3194 3194 3195 3196 3196 3196 3194 3193 3193 3192 3192 3191 3191 3191 3191 3190 3190 3190 3189 3189 3188 3188 3188 3187 3187 3186 3185 3184 3184 3182 3181 3180 3179 3178 3177 3175
3182 3184 3186 3188 3190 3192 3193 3194 3195 3195 3196 3196 3196 3196 3196 3195 3194 3193 3193 3193 3193 3193 3193 3192 3192 3191 3191 3191 3190 3190 3189 3189 3188 3187 3186 3184 3183 3182 3181 3180 3179 3177 3176
3181 3183 3185 3188 3190 3191 3193 3194 3195 3195 3196 3196 3196 3197 3197 3197 3196 3195 3195 3195 3195 3195 3194 3194 3193 3193 3192 3192 3192 3191 3191 3190 3189 3188 3186 3185 3184 3183 3182 3181 3180 3179 3177
3179 3182 3185 3187 3189 3191 3193 3194 3195 3196 3196 3196 3197 3197 3198 3198 3198 3197 3197 3196 3196 3196 3195 3194 3194 3193 3193 3193 3192 3192 3191 3190 3190 3189 3188 3186 3185 3183 3182 3180 3179 3178 3177
3177 3180 3183 3186 3188 3190 3192 3194 3195 3196 3196 3196 3197 3197 3198 3197 3198 3198 3198 3197 3197 3196 3196 3195 3195 3195 3194 3194 3193 3192 3192 3191 3190 3189 3188 3186 3185 3184 3182 3180 3179 3177 3176
3176 3179 3181 3184 3187 3189 3191 3192 3194 3194 3195 3196 3196 3197 3197 3197 3197 3197 3197 3197 3196 3196 3196 3195 3195 3194 3194 3194 3193 3192 3192 3191 3190 3189 3188 3187 3185 3184 3182 3180 3178 3177 3176
3176 3178 3180 3183 3185 3187 3189 3190 3191 3192 3193 3194 3195 3196 3196 3196 3197 3196 3196 3196 3196 3195 3195 3196 3195 3194 3193 3192 3191 3192 3191 3190 3189 3188 3187 3186 3184 3183 3181 3180 3178 3176 3175
3175 3177 3180 3181 3183 3185 3186 3188 3189 3190 3191 3192 3193 3193 3194 3194 3195 3195 3194 3194 3194 3194 3194 3194 3194 3193 3192 3191 3191 3190 3190 3189 3188 3187 3186 3184 3183 3182 3181 3179 3177 3175 3174
3173 3175 3177 3180 3181 3183 3184 3185 3186 3187 3188 3189 3190 3191 3191 3192 3192 3192 3192 3192 3192 3192 3192 3191 3191 3190 3190 3189 3188 3188 3187 3187 3186 3185 3184 3182 3181 3180 3179 3177 3176 3174 3173
3171 3173 3176 3178 3179 3181 3182 3183 3184 3185 3185 3186 3187 3187 3188 3189 3189 3189 3189 3189 3189 3189 3188 3188 3187 3187 3186 3186 3185 3184 3184 3183 3183 3182 3181 3179 3178 3177 3176 3175 3174 3173 3171
3169 3171 3173 3176 3177 3179 3180 3181 3181 3182 3183 3183 3184 3184 3185 3185 3185 3186 3186 3186 3186 3185 3185 3184 3183 3183 3182 3181 3180 3179 3179 3178 3178 3177 3176 3175 3174 3173 3172 3172 3171 3170 3168
3166 3168 3171 3172 3174 3176 3177 3178 3178 3179 3180 3180 3180 3181 3181 3182 3182 3182 3182 3183 3182 3181 3181 3180 3179 3178 3177 3176 3176 3174 3173 3172 3172 3171 3171 3170 3169 3169 3168 3167 3166 3166 3164
3161 3164 3166 3168 3170 3171 3173 3174 3174 3175 3175 3176 3177 3177 3177 3178 3178 3178 3178 3179 3177 3176 3176 3175 3174 3173 3172 3171 3170 3169 3168 3167 3167 3166 3166 3165 3165 3164 3163 3162 3161 3161 3160
3158 3160 3161 3162 3163 3165 3167 3168 3169 3170 3171 3171 3171 3172 3173 3173 3173 3173 3173 3173 3172 3171 3170 3169 3168 3166 3166 3165 3164 3163 3162 3161 3160 3160 3160 3160 3159 3159 3158 3157 3156 3156 3155
3154 3156 3157 3158 3158 3159 3159 3161 3162 3164 3165 3166 3167 3167 3167 3167 3167 3166 3167 3167 3165 3164 3164 3163 3161 3160 3159 3159 3157 3156 3155 3154 3153 3153 3153 3153 3153 3153 3152 3151 3150 3150 3149
3149 3150 3151 3153 3154 3155 3155 3156 3156 3158 3159 3159 3159 3160 3160 3160 3160 3160 3160 3159 3158 3157 3157 3156 3154 3153 3152 3151 3149 3148 3147 3146 3145 3146 3146 3146 3146 3145 3144 3144 3143 3142 3141
3144 3145 3146 3147 3148 3149 3149 3149 3149 3151 3152 3153 3154 3153 3153 3152 3152 3152 3152 3152 3151 3149 3149 3149 3147 3145 3144 3144 3141 3138 3134 3136 3137 3138 3137 3137 3138 3137 3137 3136 3135 3134 3132
3138 3139 3140 3141 3142 3142 3143 3144 3144 3145 3145 3146 3147 3148 3147 3146 3145 3144 3143 3143 3143 3142 3141 3140 3139 3137 3135 3134 3134 3133 3127 3124 3123 3125 3126 3127 3128 3127 3128 3127 3126 3125 3124
3132 3133 3134 3134 3135 3136 3136 3136 3137 3137 3138 3139 3139 3139 3139 3138 3138 3137 3136 3136 3135 3134 3132 3131 3130 3129 3127 3126 3125 3125 3123 3120 3117 3113 3115 3116 3117 3118 3117 3116 3115 3115 3114
3125 3126 3128 3129 3129 3128 3128 3129 3129 3130 3130 3131 3131 3131 3131 3130 3129 3128 3128 3127 3126 3125 3124 3123 3122 3121 3120 3118 3117 3115 3114 3112 3111 3108 3102 3104 3105 3105 3106 3104 3103 3101 3101
3118 3119 3120 3121 3122 3123 3122 3122 3122 3122 3123 3123 3124 3123 3123 3122 3121 3121 3120 3119 3118 3117 3116 3115 3113 3113 3112 3110 3109 3108 3106 3104 3102 3100 3097 3095 3092 3094 3093 3091 3090 3090 3089